Погода в Аньяне

Китай     36°05′51″N   114°21′01″E
темп.,
°C
ветер,
м/с
пор.,
м/с
влажн.,
%
обл.,
%
осадки,
мм/ч
давл.,
гПа
погр.,
м
19 апреля, пн
пн1923:00+14ююз49443 0.0 1014174
02:00+11ю33542 0.0 101350
05:00+10ююз22593 0.0 101325
08:00+18ю23383 0.0 1013241
11:00+26ююв43230 0.0 10131147
14:00+29ююв75190 0.0 10102120
17:00+26ю76260 0.0 10101882
20:00+19ю41146100 0.0 1013206
20 апреля, вт
вт2023:00+16ю3847100 0.0 1014131
02:00+16ю3652100 0.0 1014124
05:00+15ю2360100 0.0 101451
08:00+19ююз4749100 0.0 1016726
11:00+16ю5970100 0.0 1018613
14:00+15ююз2376100 0.6 1017277
17:00+15ю1272100 0.0 1017245
20:00+14ююз1176100 0.0 101811
21 апреля, ср
ср2123:00+14ююз1174100 0.1 101911
02:00+11с1187100 2.0 1017185
05:00+10св3494100 2.0 1017285
08:00+10св2394100 2.4 1018285
11:00+11всв2390100 0.4 1019370
14:00+12св3380100 0.4 1017723
17:00+13ссв4577100 0.1 1016780
20:00+11св3584100 0.1 1017413
22 апреля, чт
чт2223:00+9с1193100 0.0 101726
02:00+9ссз2291100 0.0 101570
05:00+9ссз22945 0.0 101427
08:00+12с357618 0.0 1016514
11:00+18с445378 0.0 10151163
14:00+22ссв33427 0.0 10121504
17:00+23св33390 0.0 10111466
20:00+17св22560 0.0 101312
23 апреля, пт
пт2323:00+15сз22630 0.0 101411
02:00+13ссв33683 0.0 101541
05:00+11с3473100 0.0 101752
08:00+15ссв4660100 0.0 1018432
11:00+20ссв7842100 0.0 10181128
14:00+23ссв8935100 0.0 10171654
17:00+22св91139100 0.0 10171593
20:00+18св71153100 0.0 1020835